Location: Bailey Volunteer Fire Department
(33.4359°N, 96.1680°W)
Time: 17:58:42
(UTC+00:00)

Landsat 7 - Pass Details

Date: 13 December 2025
Orbit: 680 x 682 km, 97.9° (Epoch: 14 January)

Event Time Altitude Azimuth Distance (km) Brightness Sun altitude
Rises 12:48:02 0° 11° (NNE) 3,045 7.0 -6.9°
Reaches altitude 10° 12:50:17 10° 12° (NNE) 2,126 6.2 -6.5°
Maximum altitude 12:54:56 89° 283° (WNW) 685 3.8 -5.6°
Drops below altitude 10° 12:59:34 10° 194° (SSW) 2,111 6.5 -4.7°
Sets 13:01:47 0° 194° (SSW) 3,022 7.2 -4.3°
